Salem, OR

7:56 AM PDT on March 29, 2017 (GMT -0700)
McNary

Weather History for KSLE - March, 2013

Change the Weather History Date:

Sunday, March 10, 2013

  Actual Average Record
Temperature  
Mean Temperature 44 °F 46 °F  
Max Temperature 54 °F 56 °F 75 °F (1905)
Min Temperature 34 °F 37 °F 21 °F (1969)
Degree Days  
Heating Degree Days 21 19  
Month to date heating degree days 199 196  
Since 1 July heating degree days 3258 3436  
Cooling Degree Days 0 0  
Month to date cooling degree days 0 0  
Year to date cooling degree days 0 0  
Moisture  
Dew Point 40 °F    
Average Humidity 76    
Maximum Humidity 92    
Minimum Humidity 59    
Precipitation  
Precipitation T in 0.13 in 0.99 in (1967)
Month to date precipitation 0.62 1.41  
Year to date precipitation 3.67 11.93  
Snow  
Snow 0.00 in - - ()
Month to date snowfall 0.0  
Snow Depth 0.00 in    
Sea Level Pressure  
Sea Level Pressure 30.45 in    
Wind  
Wind Speed 4 mph (ESE)    
Max Wind Speed 12 mph    
Max Gust Speed 15 mph    
Visibility 10 miles    
Events      
T = Trace of Precipitation, MM = Missing Value Source: NWS Daily Summary

Daily Weather History Graph

Daily Weather History Graph

Search for Another Location

Airport or City:

Trip Planner

Search our weather history database for the weather conditions in past years. The results will help you decide how hot, cold, wet, or windy it might be!

Date:

Astronomy

Mar. 10, 2013 Rise Set
Actual Time 7:32 AM PDT 7:12 PM PDT
Civil Twilight 7:03 AM PDT 7:41 PM PDT
Nautical Twilight 6:29 AM PDT 8:15 PM PDT
Astronomical Twilight 5:55 AM PDT 8:49 PM PDT
Moon 6:37 AM PDT (3/10) 6:25 PM PDT (3/10)
Length of Visible Light 12h 37m
Length of Day
11h 39m
Waning Crescent, 1% of the Moon is Illuminated
Mar 10
Waning Crescent
Mar 11
New
Mar 19
First Quarter
Mar 27
Full
Apr 2
Last Quarter

Hourly Weather History & Observations

Time (PDT) Temp. Windchill Dew Point Humidity Pressure Visibility Wind Dir Wind Speed Gust Speed Precip Events Conditions
1:56 AM 37.0 °F - 34.0 °F 89% 30.50 in 10.0 mi Calm Calm - N/A   Clear
3:56 AM 37.0 °F 32.4 °F 34.0 °F 89% 30.48 in 10.0 mi SE 5.8 mph - N/A   Clear
5:56 AM 39.0 °F 34.8 °F 35.1 °F 86% 30.50 in 10.0 mi WNW 5.8 mph - N/A   Mostly Cloudy
6:56 AM 39.9 °F - 36.0 °F 86% 30.48 in 10.0 mi Calm Calm - N/A   Mostly Cloudy
7:56 AM 36.0 °F 31.1 °F 34.0 °F 93% 30.48 in 10.0 mi ESE 5.8 mph - N/A   Scattered Clouds
8:56 AM 42.1 °F 37.7 °F 37.9 °F 85% 30.48 in 10.0 mi SE 6.9 mph - N/A   Overcast
9:56 AM 44.1 °F 40.8 °F 37.9 °F 79% 30.48 in 10.0 mi ESE 5.8 mph - N/A   Overcast
10:56 AM 46.9 °F - 37.9 °F 71% 30.48 in 10.0 mi SSE 9.2 mph - N/A   Overcast
11:56 AM 48.0 °F - 37.9 °F 68% 30.47 in 10.0 mi SSE 6.9 mph - N/A   Overcast
12:56 PM 51.1 °F - 39.0 °F 63% 30.45 in 10.0 mi South 8.1 mph - N/A   Overcast
1:56 PM 51.1 °F - 39.9 °F 66% 30.44 in 10.0 mi SE 5.8 mph - N/A   Overcast
2:56 PM 53.1 °F - 39.9 °F 61% 30.42 in 10.0 mi ESE 3.5 mph - N/A   Overcast
3:56 PM 54.0 °F - 39.9 °F 59% 30.43 in 10.0 mi Calm Calm - N/A   Overcast
4:56 PM 53.1 °F - 42.1 °F 66% 30.43 in 10.0 mi NNW 4.6 mph - 0.00 in   Overcast
5:56 PM 53.1 °F - 41.0 °F 64% 30.42 in 10.0 mi North 3.5 mph - N/A   Overcast
6:56 PM 52.0 °F - 42.1 °F 69% 30.42 in 10.0 mi Calm Calm - N/A   Overcast
7:56 PM 52.0 °F - 42.1 °F 69% 30.42 in 10.0 mi NNE 3.5 mph - 0.00 in   Overcast
8:56 PM 50.0 °F - 45.0 °F 83% 30.42 in 10.0 mi Calm Calm - 0.00 in   Overcast
9:21 PM 48.2 °F - 44.6 °F 87% 30.41 in 10.0 mi Calm Calm - N/A   Overcast
9:48 PM 48.2 °F - 44.6 °F 87% 30.41 in 10.0 mi Calm Calm - N/A   Overcast
9:56 PM 48.9 °F - 44.1 °F 83% 30.42 in 10.0 mi Calm Calm - N/A   Overcast
10:56 PM 48.0 °F - 44.1 °F 86% 30.43 in 10.0 mi North 4.6 mph - N/A   Overcast
11:06 PM 48.2 °F - 44.6 °F 87% 30.43 in 10.0 mi North 3.5 mph - N/A   Overcast
11:56 PM 48.0 °F - 43.0 °F 83% 30.43 in 10.0 mi NNW 3.5 mph - N/A   Overcast
12:44 AM 46.4 °F - 44.6 °F 93% 30.41 in 10.0 mi Calm Calm - N/A   Mostly Cloudy
12:56 AM 46.0 °F 44.8 °F 43.0 °F 89% 30.41 in 10.0 mi SSW 3.5 mph - N/A   Mostly Cloudy